{"data":{"norad_id":65761,"epoch":"2026-09-20T05:44:34.382976Z","epoch_age_seconds":131540,"freshness":"FRESH","line1":"1 65761U 25216AD  26263.23928684  .00012481  00000+0  37974-3 0  9990","line2":"2 65761  53.1549 146.8381 0001209  74.3532 285.7604 15.34414279 56419","mean_motion":15.34414279,"eccentricity":0.0001209,"inclination_deg":53.1549,"raan_deg":146.8381,"arg_perigee_deg":74.3532,"mean_anomaly_deg":285.7604,"bstar":0.00037974,"rev_number":5641,"period_min":93.846884749956,"perigee_km":461.833747885,"apogee_km":463.48785279312,"semimajor_km":6840.7978003391,"source":"CELESTRAK","updated_at":"2026-09-21T09:00:35.712769Z"}}